Time,TemperatureF,DewpointF,PressureIn,WindDirection,WindDirectionDegrees,WindSpeedMPH,WindSpeedGustMPH,Humidity,HourlyPrecipIn,Conditions,Clouds,dailyrainin,SolarRadiationWatts/m^2,SoftwareType,DateUTC
2013-01-29 00:00:00,28.2,25.1,30.02,SSE,168,13.0,15.0,88,0.00,,,0.04,0,WeatherHawk,2013-01-29 05:00:00,
2013-01-29 00:03:00,28.0,25.0,30.02,SSW,199,19.0,32.0,88,0.00,,,0.00,0,WeatherHawk,2013-01-29 05:03:00,
2013-01-29 00:06:00,28.0,25.0,30.02,SSE,149,8.0,32.0,88,0.00,,,0.00,0,WeatherHawk,2013-01-29 05:06:00,
2013-01-29 00:10:00,28.0,25.2,30.02,SSW,194,14.0,-999.0,89,0.00,,,0.00,0,WeatherHawk,2013-01-29 05:10:00,
2013-01-29 00:13:00,28.0,25.0,30.02,WSW,253,7.0,28.0,88,0.00,,,0.00,0,WeatherHawk,2013-01-29 05:13:00,
2013-01-29 00:18:00,28.0,25.2,30.02,South,184,15.0,28.0,89,0.00,,,0.00,0,WeatherHawk,2013-01-29 05:18:00,
2013-01-29 00:23:00,28.0,25.2,30.02,North,0,0.0,24.0,89,0.00,,,0.00,0,WeatherHawk,2013-01-29 05:23:00,
2013-01-29 00:28:00,28.0,25.2,30.02,SE,144,12.0,35.0,89,0.00,,,0.00,0,WeatherHawk,2013-01-29 05:28:00,
2013-01-29 00:33:00,27.9,25.0,30.02,WSW,246,22.0,35.0,89,0.00,,,0.00,0,WeatherHawk,2013-01-29 05:33:00,
2013-01-29 00:38:00,27.9,25.0,30.03,SW,214,23.0,34.0,89,0.00,,,0.00,0,WeatherHawk,2013-01-29 05:38:00,
2013-01-29 00:43:00,27.9,25.0,30.02,SSE,156,11.0,34.0,89,0.00,,,0.00,0,WeatherHawk,2013-01-29 05:43:00,
2013-01-29 00:48:00,27.9,25.0,30.02,SSE,156,12.0,32.0,89,0.00,,,0.00,0,WeatherHawk,2013-01-29 05:48:00,
2013-01-29 00:53:00,28.0,25.2,30.02,SSE,155,12.0,32.0,89,0.00,,,0.00,0,WeatherHawk,2013-01-29 05:53:00,
2013-01-29 00:58:00,28.0,25.2,30.02,North,0,0.0,33.0,89,0.00,,,0.00,0,WeatherHawk,2013-01-29 05:58:00,
2013-01-29 01:03:00,28.0,25.2,30.02,SSE,158,11.0,33.0,89,0.00,,,0.00,0,WeatherHawk,2013-01-29 06:03:00,
2013-01-29 01:08:00,28.0,25.2,30.03,SE,145,13.0,33.0,89,0.00,,,0.00,0,WeatherHawk,2013-01-29 06:08:00,
2013-01-29 01:13:00,28.0,25.2,30.03,SSE,152,12.0,32.0,89,0.00,,,0.00,0,WeatherHawk,2013-01-29 06:13:00,
2013-01-29 01:18:00,28.0,25.2,30.03,SSE,160,9.0,32.0,89,0.00,,,0.00,0,WeatherHawk,2013-01-29 06:18:00,
2013-01-29 01:23:00,28.0,25.2,30.03,South,188,14.0,32.0,89,0.00,,,0.00,0,WeatherHawk,2013-01-29 06:23:00,
2013-01-29 01:28:00,28.0,25.2,30.03,SSE,154,11.0,24.0,89,0.00,,,0.00,0,WeatherHawk,2013-01-29 06:28:00,
2013-01-29 01:33:00,27.9,25.0,30.04,SSE,153,10.0,28.0,89,0.00,,,0.00,0,WeatherHawk,2013-01-29 06:33:00,
2013-01-29 01:38:00,27.9,25.0,30.03,SSE,153,13.0,28.0,89,0.00,,,0.00,0,WeatherHawk,2013-01-29 06:38:00,
2013-01-29 01:43:00,27.9,25.0,30.04,SE,143,10.0,15.0,89,0.00,,,0.00,0,WeatherHawk,2013-01-29 06:43:00,
2013-01-29 01:48:00,27.9,25.0,30.04,ESE,123,10.0,14.0,89,0.00,,,0.00,0,WeatherHawk,2013-01-29 06:48:00,
2013-01-29 01:53:00,27.9,25.0,30.04,SE,145,10.0,14.0,89,0.00,,,0.00,0,WeatherHawk,2013-01-29 06:53:00,
2013-01-29 01:58:00,27.9,25.0,30.04,North,0,0.0,14.0,89,0.00,,,0.00,0,WeatherHawk,2013-01-29 06:58:00,
2013-01-29 02:03:00,27.9,25.0,30.04,SSE,149,7.0,13.0,89,0.00,,,0.00,0,WeatherHawk,2013-01-29 07:03:00,
2013-01-29 02:08:00,27.9,25.0,30.04,North,0,0.0,12.0,89,0.00,,,0.00,0,WeatherHawk,2013-01-29 07:08:00,
2013-01-29 02:13:00,27.9,25.0,30.04,SSE,166,10.0,12.0,89,0.00,,,0.00,0,WeatherHawk,2013-01-29 07:13:00,
2013-01-29 02:18:00,27.9,25.0,30.04,North,0,0.0,12.0,89,0.00,,,0.00,0,WeatherHawk,2013-01-29 07:18:00,
2013-01-29 02:23:00,27.9,25.0,30.04,ESE,117,9.0,12.0,89,0.00,,,0.00,0,WeatherHawk,2013-01-29 07:23:00,
2013-01-29 02:28:00,27.9,25.0,30.04,South,180,9.0,12.0,89,0.00,,,0.00,0,WeatherHawk,2013-01-29 07:28:00,
2013-01-29 02:33:00,27.9,25.0,30.04,South,177,11.0,12.0,89,0.00,,,0.00,0,WeatherHawk,2013-01-29 07:33:00,
2013-01-29 02:38:00,27.9,25.0,30.04,South,170,6.0,11.0,89,0.00,,,0.00,0,WeatherHawk,2013-01-29 07:38:00,
2013-01-29 02:43:00,27.7,24.9,30.04,SSE,167,8.0,12.0,89,0.00,,,0.00,0,WeatherHawk,2013-01-29 07:43:00,
2013-01-29 02:48:00,27.7,24.9,30.04,SSE,167,9.0,12.0,89,0.00,,,0.00,0,WeatherHawk,2013-01-29 07:48:00,
2013-01-29 02:54:00,27.7,24.9,30.04,SE,128,4.0,12.0,89,0.00,,,0.00,0,WeatherHawk,2013-01-29 07:54:00,
2013-01-29 02:59:00,27.7,24.9,30.04,SSE,164,9.0,12.0,89,0.00,,,0.00,0,WeatherHawk,2013-01-29 07:59:00,
2013-01-29 03:04:00,27.5,24.7,30.04,SSE,149,8.0,12.0,89,0.00,,,0.00,0,WeatherHawk,2013-01-29 08:04:00,
2013-01-29 03:09:00,27.5,24.7,30.04,SSW,195,12.0,12.0,89,0.00,,,0.00,0,WeatherHawk,2013-01-29 08:09:00,
2013-01-29 03:15:00,27.5,24.4,30.04,SSE,160,10.0,13.0,88,0.00,,,0.00,0,WeatherHawk,2013-01-29 08:15:00,
2013-01-29 03:20:00,27.3,24.2,30.05,SSE,157,12.0,13.0,88,0.00,,,0.00,0,WeatherHawk,2013-01-29 08:20:00,
2013-01-29 03:25:00,27.1,24.1,30.05,SW,236,7.0,13.0,88,0.00,,,0.00,0,WeatherHawk,2013-01-29 08:25:00,
2013-01-29 03:30:00,27.1,24.1,30.05,SE,142,8.0,15.0,88,0.00,,,0.00,0,WeatherHawk,2013-01-29 08:30:00,
2013-01-29 03:35:00,27.0,23.9,30.05,SE,136,9.0,15.0,88,0.00,,,0.00,0,WeatherHawk,2013-01-29 08:35:00,
2013-01-29 03:40:00,26.8,23.7,30.05,SSE,149,8.0,15.0,88,0.00,,,0.00,0,WeatherHawk,2013-01-29 08:40:00,
2013-01-29 03:45:00,26.8,23.7,30.05,SSW,208,7.0,15.0,88,0.00,,,0.00,1,WeatherHawk,2013-01-29 08:45:00,
2013-01-29 03:50:00,26.6,23.5,30.05,SSE,149,7.0,15.0,88,0.00,,,0.00,0,WeatherHawk,2013-01-29 08:50:00,
2013-01-29 03:55:00,26.6,23.5,30.05,South,173,5.0,15.0,88,0.00,,,0.00,0,WeatherHawk,2013-01-29 08:55:00,
2013-01-29 04:00:00,26.4,23.4,30.05,South,173,7.0,15.0,88,0.00,,,0.00,0,WeatherHawk,2013-01-29 09:00:00,
2013-01-29 04:05:00,26.4,23.4,30.05,South,169,6.0,15.0,88,0.00,,,0.00,0,WeatherHawk,2013-01-29 09:05:00,
2013-01-29 04:10:00,26.4,23.4,30.05,SE,142,9.0,22.0,88,0.00,,,0.00,0,WeatherHawk,2013-01-29 09:10:00,
2013-01-29 04:15:00,26.4,23.4,30.05,SE,140,7.0,28.0,88,0.00,,,0.00,0,WeatherHawk,2013-01-29 09:15:00,
2013-01-29 04:20:00,26.2,23.2,30.05,SSW,198,13.0,28.0,88,0.00,,,0.00,0,WeatherHawk,2013-01-29 09:20:00,
2013-01-29 04:25:00,26.2,23.2,30.05,South,182,7.0,17.0,88,0.00,,,0.00,0,WeatherHawk,2013-01-29 09:25:00,
2013-01-29 04:30:00,26.2,23.2,30.06,South,170,7.0,17.0,88,0.00,,,0.00,0,WeatherHawk,2013-01-29 09:30:00,
2013-01-29 04:35:00,26.2,23.2,30.06,South,181,9.0,14.0,88,0.00,,,0.00,0,WeatherHawk,2013-01-29 09:35:00,
2013-01-29 04:40:00,26.2,23.2,30.06,SW,217,16.0,-999.0,88,0.00,,,0.00,0,WeatherHawk,2013-01-29 09:40:00,
2013-01-29 04:45:00,26.2,23.2,30.06,SSE,153,11.0,16.0,88,0.00,,,0.00,0,WeatherHawk,2013-01-29 09:45:00,
2013-01-29 04:50:00,26.2,23.2,30.06,SSE,167,9.0,16.0,88,0.00,,,0.00,1,WeatherHawk,2013-01-29 09:50:00,
2013-01-29 04:55:00,26.2,23.2,30.07,SSE,150,7.0,20.0,88,0.00,,,0.00,0,WeatherHawk,2013-01-29 09:55:00,
2013-01-29 05:00:00,26.2,22.9,30.07,SE,128,8.0,20.0,87,0.00,,,0.00,0,WeatherHawk,2013-01-29 10:00:00,
2013-01-29 05:05:00,26.2,22.9,30.07,SE,134,6.0,24.0,87,0.00,,,0.00,0,WeatherHawk,2013-01-29 10:05:00,
2013-01-29 05:10:00,26.2,22.9,30.07,SSW,197,8.0,24.0,87,0.00,,,0.00,0,WeatherHawk,2013-01-29 10:10:00,
2013-01-29 05:15:00,26.1,22.7,30.07,South,183,5.0,18.0,87,0.00,,,0.00,0,WeatherHawk,2013-01-29 10:15:00,
2013-01-29 05:20:00,26.1,22.7,30.07,ENE,64,11.0,18.0,87,0.00,,,0.00,0,WeatherHawk,2013-01-29 10:20:00,
2013-01-29 05:25:00,26.1,22.7,30.07,SE,139,8.0,17.0,87,0.00,,,0.00,0,WeatherHawk,2013-01-29 10:25:00,
2013-01-29 05:30:00,26.1,22.7,30.07,SE,135,8.0,17.0,87,0.00,,,0.00,0,WeatherHawk,2013-01-29 10:30:00,
2013-01-29 05:35:00,26.1,22.7,30.07,SSW,198,12.0,16.0,87,0.00,,,0.00,0,WeatherHawk,2013-01-29 10:35:00,
2013-01-29 05:40:00,26.1,22.7,30.07,West,265,11.0,-999.0,87,0.00,,,0.00,0,WeatherHawk,2013-01-29 10:40:00,
2013-01-29 05:45:00,26.1,22.7,30.07,South,171,8.0,18.0,87,0.00,,,0.00,0,WeatherHawk,2013-01-29 10:45:00,
2013-01-29 05:50:00,26.1,22.5,30.08,West,268,10.0,17.0,86,0.00,,,0.00,0,WeatherHawk,2013-01-29 10:50:00,
2013-01-29 05:55:00,26.1,22.5,30.08,East,96,10.0,13.0,86,0.00,,,0.00,0,WeatherHawk,2013-01-29 10:55:00,
2013-01-29 06:00:00,26.1,22.5,30.08,WSW,238,15.0,15.0,86,0.00,,,0.00,0,WeatherHawk,2013-01-29 11:00:00,
2013-01-29 06:05:00,26.1,22.5,30.08,WNW,293,12.0,20.0,86,0.00,,,0.00,0,WeatherHawk,2013-01-29 11:05:00,
2013-01-29 06:10:00,25.9,22.3,30.09,NW,318,15.0,20.0,86,0.00,,,0.00,0,WeatherHawk,2013-01-29 11:10:00,
2013-01-29 06:15:00,25.9,22.3,30.09,West,262,13.0,19.0,86,0.00,,,0.00,0,WeatherHawk,2013-01-29 11:15:00,
2013-01-29 06:20:00,26.1,22.5,30.09,NW,319,14.0,-999.0,86,0.00,,,0.00,0,WeatherHawk,2013-01-29 11:20:00,
2013-01-29 06:25:00,26.1,22.5,30.09,WNW,303,13.0,18.0,86,0.00,,,0.00,0,WeatherHawk,2013-01-29 11:25:00,
2013-01-29 06:30:00,26.1,22.5,30.09,NW,311,16.0,-999.0,86,0.00,,,0.00,0,WeatherHawk,2013-01-29 11:30:00,
2013-01-29 06:35:00,26.1,22.2,30.09,WNW,293,12.0,21.0,85,0.00,,,0.00,0,WeatherHawk,2013-01-29 11:35:00,
2013-01-29 06:40:00,26.1,22.2,30.09,NNW,328,15.0,21.0,85,0.00,,,0.00,0,WeatherHawk,2013-01-29 11:40:00,
2013-01-29 06:45:00,26.1,22.2,30.10,NW,318,11.0,18.0,85,0.00,,,0.00,0,WeatherHawk,2013-01-29 11:45:00,
2013-01-29 06:50:00,26.1,22.2,30.10,NW,323,12.0,18.0,85,0.00,,,0.00,0,WeatherHawk,2013-01-29 11:50:00,
2013-01-29 06:55:00,26.2,22.4,30.10,NW,321,15.0,19.0,85,0.00,,,0.00,0,WeatherHawk,2013-01-29 11:55:00,
2013-01-29 07:00:00,26.2,22.4,30.11,NW,310,11.0,19.0,85,0.00,,,0.00,1,WeatherHawk,2013-01-29 12:00:00,
2013-01-29 07:05:00,26.2,22.4,30.11,NW,323,13.0,18.0,85,0.00,,,0.00,3,WeatherHawk,2013-01-29 12:05:00,
2013-01-29 07:10:00,26.2,22.4,30.12,NW,324,10.0,-999.0,85,0.00,,,0.00,3,WeatherHawk,2013-01-29 12:10:00,
2013-01-29 07:15:00,26.2,22.4,30.12,NNW,336,16.0,19.0,85,0.00,,,0.00,3,WeatherHawk,2013-01-29 12:15:00,
2013-01-29 07:20:00,26.2,22.4,30.11,NW,323,14.0,19.0,85,0.00,,,0.00,8,WeatherHawk,2013-01-29 12:20:00,
2013-01-29 07:25:00,26.2,22.4,30.11,NW,322,10.0,17.0,85,0.00,,,0.00,8,WeatherHawk,2013-01-29 12:25:00,
2013-01-29 07:30:00,26.2,22.4,30.12,NW,321,15.0,-999.0,85,0.00,,,0.00,11,WeatherHawk,2013-01-29 12:30:00,
2013-01-29 07:35:00,26.4,22.3,30.12,NW,322,19.0,19.0,84,0.00,,,0.00,12,WeatherHawk,2013-01-29 12:35:00,
2013-01-29 07:40:00,26.2,22.1,30.13,NW,310,15.0,19.0,84,0.00,,,0.00,21,WeatherHawk,2013-01-29 12:40:00,
2013-01-29 07:45:00,26.4,22.3,30.13,NNW,327,9.0,19.0,84,0.00,,,0.00,18,WeatherHawk,2013-01-29 12:45:00,
2013-01-29 07:50:00,26.4,22.3,30.13,NW,314,14.0,20.0,84,0.00,,,0.00,19,WeatherHawk,2013-01-29 12:50:00,
2013-01-29 07:55:00,26.4,22.3,30.13,NNW,329,12.0,20.0,84,0.00,,,0.00,25,WeatherHawk,2013-01-29 12:55:00,
2013-01-29 08:00:00,26.6,22.4,30.14,NW,311,14.0,19.0,84,0.00,,,0.00,27,WeatherHawk,2013-01-29 13:00:00,
2013-01-29 08:05:00,26.6,22.4,30.14,NW,320,15.0,19.0,84,0.00,,,0.00,34,WeatherHawk,2013-01-29 13:05:00,
2013-01-29 08:10:00,26.6,22.4,30.14,NW,307,14.0,19.0,84,0.00,,,0.00,39,WeatherHawk,2013-01-29 13:10:00,
2013-01-29 08:15:00,26.6,22.4,30.14,NW,317,15.0,16.0,84,0.00,,,0.00,43,WeatherHawk,2013-01-29 13:15:00,
2013-01-29 08:20:00,26.6,22.4,30.14,NW,309,10.0,19.0,84,0.00,,,0.00,52,WeatherHawk,2013-01-29 13:20:00,
2013-01-29 08:25:00,26.8,22.3,30.14,WSW,247,11.0,19.0,83,0.00,,,0.00,55,WeatherHawk,2013-01-29 13:25:00,
2013-01-29 08:30:00,26.8,22.3,30.15,SSW,204,11.0,15.0,83,0.00,,,0.00,56,WeatherHawk,2013-01-29 13:30:00,
2013-01-29 08:35:00,27.0,22.5,30.15,West,270,10.0,15.0,83,0.00,,,0.00,64,WeatherHawk,2013-01-29 13:35:00,
2013-01-29 08:40:00,27.1,23.0,30.15,SW,230,12.0,13.0,84,0.00,,,0.00,69,WeatherHawk,2013-01-29 13:40:00,
2013-01-29 08:45:00,27.1,22.7,30.15,NW,321,10.0,13.0,83,0.00,,,0.00,64,WeatherHawk,2013-01-29 13:45:00,
2013-01-29 08:50:00,27.0,22.5,30.15,NW,309,13.0,14.0,83,0.00,,,0.00,67,WeatherHawk,2013-01-29 13:50:00,
2013-01-29 08:55:00,27.1,22.7,30.15,NW,307,9.0,15.0,83,0.00,,,0.00,62,WeatherHawk,2013-01-29 13:55:00,
2013-01-29 09:00:00,27.3,22.9,30.15,NW,314,7.0,15.0,83,0.00,,,0.00,65,WeatherHawk,2013-01-29 14:00:00,
2013-01-29 09:05:00,27.3,22.9,30.16,WNW,293,10.0,13.0,83,0.00,,,0.00,60,WeatherHawk,2013-01-29 14:05:00,
2013-01-29 09:10:00,27.3,22.9,30.16,SSW,200,12.0,-999.0,83,0.00,,,0.00,61,WeatherHawk,2013-01-29 14:10:00,
2013-01-29 09:15:00,27.5,23.0,30.16,WSW,248,11.0,15.0,83,0.00,,,0.00,69,WeatherHawk,2013-01-29 14:15:00,
2013-01-29 09:20:00,27.5,23.0,30.17,WSW,258,11.0,-999.0,83,0.00,,,0.00,60,WeatherHawk,2013-01-29 14:20:00,
2013-01-29 09:25:00,27.5,22.7,30.17,WSW,249,11.0,-999.0,82,0.00,,,0.00,66,WeatherHawk,2013-01-29 14:25:00,
2013-01-29 09:30:00,27.5,22.7,30.16,WNW,285,10.0,13.0,82,0.00,,,0.00,83,WeatherHawk,2013-01-29 14:30:00,
2013-01-29 09:35:00,27.7,22.9,30.17,WNW,294,7.0,14.0,82,0.00,,,0.00,88,WeatherHawk,2013-01-29 14:35:00,
2013-01-29 09:40:00,27.9,23.1,30.17,NNW,332,9.0,-999.0,82,0.00,,,0.00,86,WeatherHawk,2013-01-29 14:40:00,
2013-01-29 09:45:00,27.9,23.1,30.16,NNW,335,6.0,-999.0,82,0.00,,,0.00,103,WeatherHawk,2013-01-29 14:45:00,
2013-01-29 09:50:00,28.0,23.3,30.17,NW,325,9.0,11.0,82,0.00,,,0.00,105,WeatherHawk,2013-01-29 14:50:00,
2013-01-29 09:55:00,28.0,23.0,30.17,NW,313,9.0,11.0,81,0.00,,,0.00,108,WeatherHawk,2013-01-29 14:55:00,
2013-01-29 10:00:00,28.2,23.4,30.16,NW,305,7.0,11.0,82,0.00,,,0.00,122,WeatherHawk,2013-01-29 15:00:00,
2013-01-29 10:05:00,28.4,23.3,30.16,NW,323,7.0,11.0,81,0.00,,,0.00,154,WeatherHawk,2013-01-29 15:05:00,
2013-01-29 10:10:00,28.6,23.5,30.17,NW,325,6.0,10.0,81,0.00,,,0.00,162,WeatherHawk,2013-01-29 15:10:00,
2013-01-29 10:15:00,28.8,23.7,30.16,NNW,331,6.0,-999.0,81,0.00,,,0.00,170,WeatherHawk,2013-01-29 15:15:00,
2013-01-29 10:20:00,29.1,24.0,30.17,WNW,294,6.0,8.0,81,0.00,,,0.00,162,WeatherHawk,2013-01-29 15:20:00,
2013-01-29 10:25:00,29.1,23.7,30.17,NW,312,5.0,-999.0,80,0.00,,,0.00,165,WeatherHawk,2013-01-29 15:25:00,
2013-01-29 10:30:00,29.1,23.7,30.17,WNW,302,8.0,9.0,80,0.00,,,0.00,162,WeatherHawk,2013-01-29 15:30:00,
2013-01-29 10:35:00,29.5,24.1,30.18,WNW,300,3.0,9.0,80,0.00,,,0.00,149,WeatherHawk,2013-01-29 15:35:00,
2013-01-29 10:40:00,29.7,24.3,30.18,NW,324,8.0,-999.0,80,0.00,,,0.00,150,WeatherHawk,2013-01-29 15:40:00,
2013-01-29 10:45:00,29.7,24.3,30.18,NNW,327,4.0,8.0,80,0.00,,,0.00,137,WeatherHawk,2013-01-29 15:45:00,
2013-01-29 10:50:00,30.0,24.6,30.18,NNW,344,3.0,-999.0,80,0.00,,,0.00,152,WeatherHawk,2013-01-29 15:50:00,
2013-01-29 10:55:00,30.0,24.3,30.18,NW,320,3.0,8.0,79,0.00,,,0.00,121,WeatherHawk,2013-01-29 15:55:00,
2013-01-29 11:00:00,30.0,24.3,30.18,NNW,348,4.0,8.0,79,0.00,,,0.00,127,WeatherHawk,2013-01-29 16:00:00,
2013-01-29 11:05:00,30.0,24.3,30.19,North,1,5.0,8.0,79,0.00,,,0.00,121,WeatherHawk,2013-01-29 16:05:00,
2013-01-29 11:10:00,30.0,24.3,30.19,NW,319,5.0,8.0,79,0.00,,,0.00,133,WeatherHawk,2013-01-29 16:10:00,
2013-01-29 11:15:00,30.2,24.5,30.19,NNW,331,4.0,8.0,79,0.00,,,0.00,130,WeatherHawk,2013-01-29 16:15:00,
2013-01-29 11:20:00,30.4,24.4,30.18,NW,305,6.0,9.0,78,0.00,,,0.00,143,WeatherHawk,2013-01-29 16:20:00,
2013-01-29 11:25:00,30.6,24.5,30.18,NNW,333,7.0,9.0,78,0.00,,,0.00,145,WeatherHawk,2013-01-29 16:25:00,
2013-01-29 11:30:00,30.7,25.0,30.18,NNW,344,6.0,-999.0,79,0.00,,,0.00,148,WeatherHawk,2013-01-29 16:30:00,
2013-01-29 11:35:00,30.9,25.2,30.18,NNW,336,3.0,8.0,79,0.00,,,0.00,170,WeatherHawk,2013-01-29 16:35:00,
2013-01-29 11:40:00,31.1,25.1,30.18,NW,314,9.0,9.0,78,0.00,,,0.00,155,WeatherHawk,2013-01-29 16:40:00,
2013-01-29 11:45:00,31.3,25.2,30.18,NNW,344,4.0,-999.0,78,0.00,,,0.00,169,WeatherHawk,2013-01-29 16:45:00,
2013-01-29 11:50:00,31.3,25.2,30.18,NNW,341,4.0,-999.0,78,0.00,,,0.00,165,WeatherHawk,2013-01-29 16:50:00,
2013-01-29 11:55:00,31.5,25.4,30.18,NW,320,6.0,9.0,78,0.00,,,0.00,168,WeatherHawk,2013-01-29 16:55:00,
2013-01-29 12:00:00,31.5,25.4,30.18,NW,315,4.0,8.0,78,0.00,,,0.00,178,WeatherHawk,2013-01-29 17:00:00,
2013-01-29 12:05:00,31.5,25.4,30.18,North,1,2.0,8.0,78,0.00,,,0.00,172,WeatherHawk,2013-01-29 17:05:00,
2013-01-29 12:10:00,31.8,25.8,30.18,North,355,2.0,8.0,78,0.00,,,0.00,186,WeatherHawk,2013-01-29 17:10:00,
2013-01-29 12:15:00,31.8,25.4,30.17,NNW,348,6.0,8.0,77,0.00,,,0.00,187,WeatherHawk,2013-01-29 17:15:00,
2013-01-29 12:20:00,31.8,25.4,30.17,North,354,5.0,-999.0,77,0.00,,,0.00,185,WeatherHawk,2013-01-29 17:20:00,
2013-01-29 12:25:00,32.0,25.9,30.17,NNE,22,2.0,7.0,78,0.00,,,0.00,154,WeatherHawk,2013-01-29 17:25:00,
2013-01-29 12:30:00,32.0,25.6,30.17,NNE,15,4.0,7.0,77,0.00,,,0.00,156,WeatherHawk,2013-01-29 17:30:00,
2013-01-29 12:35:00,32.2,25.8,30.17,North,355,6.0,7.0,77,0.00,,,0.00,183,WeatherHawk,2013-01-29 17:35:00,
2013-01-29 12:40:00,32.4,26.0,30.17,NNW,342,8.0,9.0,77,0.00,,,0.00,240,WeatherHawk,2013-01-29 17:40:00,
2013-01-29 12:45:00,32.5,25.8,30.17,NNW,337,4.0,9.0,76,0.00,,,0.00,218,WeatherHawk,2013-01-29 17:45:00,
2013-01-29 12:50:00,32.5,25.8,30.17,NNW,347,5.0,8.0,76,0.00,,,0.00,189,WeatherHawk,2013-01-29 17:50:00,
2013-01-29 12:55:00,32.7,26.0,30.17,NW,318,5.0,-999.0,76,0.00,,,0.00,154,WeatherHawk,2013-01-29 17:55:00,
2013-01-29 13:00:00,32.5,25.8,30.17,NW,310,4.0,6.0,76,0.00,,,0.00,149,WeatherHawk,2013-01-29 18:00:00,
2013-01-29 13:05:00,32.5,25.8,30.17,NW,321,5.0,7.0,76,0.00,,,0.00,121,WeatherHawk,2013-01-29 18:05:00,
2013-01-29 13:10:00,32.7,26.0,30.17,North,6,1.0,7.0,76,0.00,,,0.00,130,WeatherHawk,2013-01-29 18:10:00,
2013-01-29 13:15:00,32.7,26.0,30.17,NNW,348,5.0,6.0,76,0.00,,,0.00,121,WeatherHawk,2013-01-29 18:15:00,
2013-01-29 13:20:00,32.7,26.0,30.17,NNW,344,4.0,6.0,76,0.00,,,0.00,132,WeatherHawk,2013-01-29 18:20:00,
2013-01-29 13:25:00,32.9,25.9,30.17,North,5,5.0,-999.0,75,0.00,,,0.00,118,WeatherHawk,2013-01-29 18:25:00,
2013-01-29 13:30:00,32.9,26.2,30.17,NNW,332,6.0,7.0,76,0.00,,,0.00,118,WeatherHawk,2013-01-29 18:30:00,
2013-01-29 13:35:00,32.9,26.2,30.16,NE,35,2.0,7.0,76,0.00,,,0.00,132,WeatherHawk,2013-01-29 18:35:00,
2013-01-29 13:40:00,33.3,26.5,30.16,North,11,1.0,6.0,76,0.00,,,0.00,122,WeatherHawk,2013-01-29 18:40:00,
2013-01-29 13:45:00,33.1,26.0,30.16,North,350,5.0,6.0,75,0.00,,,0.00,116,WeatherHawk,2013-01-29 18:45:00,
2013-01-29 13:50:00,33.1,26.0,30.16,NNE,16,3.0,6.0,75,0.00,,,0.00,117,WeatherHawk,2013-01-29 18:50:00,
2013-01-29 13:55:00,33.3,26.2,30.16,North,354,2.0,6.0,75,0.00,,,0.00,100,WeatherHawk,2013-01-29 18:55:00,
2013-01-29 14:00:00,33.3,26.2,30.16,WNW,300,4.0,7.0,75,0.00,,,0.00,108,WeatherHawk,2013-01-29 19:00:00,
2013-01-29 14:05:00,33.3,26.2,30.16,NNW,328,3.0,7.0,75,0.00,,,0.00,105,WeatherHawk,2013-01-29 19:05:00,
2013-01-29 14:10:00,33.1,26.0,30.17,North,0,5.0,6.0,75,0.00,,,0.00,91,WeatherHawk,2013-01-29 19:10:00,
2013-01-29 14:15:00,33.3,26.2,30.17,North,2,4.0,6.0,75,0.00,,,0.00,100,WeatherHawk,2013-01-29 19:15:00,
2013-01-29 14:20:00,33.4,26.7,30.18,WNW,283,2.0,6.0,76,0.00,,,0.00,107,WeatherHawk,2013-01-29 19:20:00,
2013-01-29 14:25:00,33.4,26.7,30.18,WNW,288,3.0,5.0,76,0.00,,,0.00,90,WeatherHawk,2013-01-29 19:25:00,
2013-01-29 14:30:00,33.6,26.9,30.18,NNE,21,2.0,4.0,76,0.00,,,0.00,71,WeatherHawk,2013-01-29 19:30:00,
2013-01-29 14:35:00,33.4,26.4,30.18,North,355,4.0,-999.0,75,0.00,,,0.00,65,WeatherHawk,2013-01-29 19:35:00,
2013-01-29 14:40:00,33.6,26.6,30.17,NW,321,1.0,5.0,75,0.00,,,0.00,62,WeatherHawk,2013-01-29 19:40:00,
2013-01-29 14:45:00,33.6,26.6,30.17,NNW,336,2.0,5.0,75,0.00,,,0.00,57,WeatherHawk,2013-01-29 19:45:00,
2013-01-29 14:50:00,33.6,26.6,30.17,North,1,3.0,4.0,75,0.00,,,0.00,51,WeatherHawk,2013-01-29 19:50:00,
2013-01-29 14:55:00,33.6,26.6,30.18,NNE,16,3.0,4.0,75,0.00,,,0.00,44,WeatherHawk,2013-01-29 19:55:00,
2013-01-29 15:00:00,33.6,26.6,30.18,NW,317,1.0,3.0,75,0.00,,,0.00,44,WeatherHawk,2013-01-29 20:00:00,
2013-01-29 15:05:00,33.8,27.1,30.18,NE,39,1.0,3.0,76,0.00,,,0.00,56,WeatherHawk,2013-01-29 20:05:00,
2013-01-29 15:10:00,33.8,27.1,30.18,NNE,20,2.0,3.0,76,0.00,,,0.00,61,WeatherHawk,2013-01-29 20:10:00,
2013-01-29 15:15:00,33.8,26.7,30.18,NNW,348,2.0,3.0,75,0.00,,,0.00,44,WeatherHawk,2013-01-29 20:15:00,
2013-01-29 15:20:00,34.0,27.2,30.18,North,355,2.0,3.0,76,0.00,,,0.00,45,WeatherHawk,2013-01-29 20:20:00,
2013-01-29 15:25:00,33.8,27.1,30.18,SE,139,1.0,3.0,76,0.00,,,0.00,41,WeatherHawk,2013-01-29 20:25:00,
2013-01-29 15:30:00,34.0,26.9,30.18,NNW,338,1.0,-999.0,75,0.00,,,0.00,45,WeatherHawk,2013-01-29 20:30:00,
2013-01-29 15:35:00,34.0,26.9,30.18,NE,37,2.0,3.0,75,0.00,,,0.00,47,WeatherHawk,2013-01-29 20:35:00,
2013-01-29 15:40:00,34.0,26.9,30.18,ESE,111,1.0,3.0,75,0.00,,,0.00,40,WeatherHawk,2013-01-29 20:40:00,
2013-01-29 15:45:00,34.0,26.9,30.18,NNW,329,2.0,-999.0,75,0.00,,,0.00,30,WeatherHawk,2013-01-29 20:45:00,
2013-01-29 15:50:00,34.0,26.9,30.18,NNE,19,1.0,4.0,75,0.00,,,0.00,28,WeatherHawk,2013-01-29 20:50:00,
2013-01-29 15:53:00,34.0,26.9,30.18,ESE,114,1.0,4.0,75,0.00,,,0.00,27,WeatherHawk,2013-01-29 20:53:00,
2013-01-29 15:58:00,34.0,26.9,30.18,North,9,2.0,3.0,75,0.00,,,0.00,26,WeatherHawk,2013-01-29 20:58:00,
2013-01-29 16:03:00,34.0,26.9,30.17,NNE,28,1.0,4.0,75,0.00,,,0.00,26,WeatherHawk,2013-01-29 21:03:00,
2013-01-29 16:08:00,34.0,26.9,30.17,WNW,298,2.0,4.0,75,0.00,,,0.00,17,WeatherHawk,2013-01-29 21:08:00,
2013-01-29 16:13:00,34.0,26.9,30.18,WNW,302,3.0,4.0,75,0.00,,,0.00,12,WeatherHawk,2013-01-29 21:13:00,
2013-01-29 16:18:00,34.0,27.2,30.17,WNW,283,2.0,4.0,76,0.00,,,0.00,12,WeatherHawk,2013-01-29 21:18:00,
2013-01-29 16:23:00,34.0,27.2,30.17,NW,318,2.0,4.0,76,0.00,,,0.00,9,WeatherHawk,2013-01-29 21:23:00,
2013-01-29 16:28:00,34.0,27.2,30.17,WSW,255,1.0,3.0,76,0.00,,,0.00,8,WeatherHawk,2013-01-29 21:28:00,
2013-01-29 16:33:00,34.0,27.2,30.17,WNW,302,1.0,3.0,76,0.00,,,0.00,7,WeatherHawk,2013-01-29 21:33:00,
2013-01-29 16:38:00,34.0,27.2,30.17,NNE,18,1.0,2.0,76,0.00,,,0.00,5,WeatherHawk,2013-01-29 21:38:00,
2013-01-29 16:43:00,34.0,27.2,30.17,West,280,2.0,2.0,76,0.00,,,0.00,3,WeatherHawk,2013-01-29 21:43:00,
2013-01-29 16:48:00,34.0,27.2,30.18,WNW,284,2.0,4.0,76,0.00,,,0.00,0,WeatherHawk,2013-01-29 21:48:00,
2013-01-29 16:53:00,34.0,27.5,30.18,WNW,293,4.0,6.0,77,0.00,,,0.00,0,WeatherHawk,2013-01-29 21:53:00,
2013-01-29 16:58:00,34.0,27.5,30.19,NW,305,9.0,9.0,77,0.00,,,0.00,0,WeatherHawk,2013-01-29 21:58:00,
2013-01-29 17:03:00,33.8,27.4,30.19,WNW,299,4.0,9.0,77,0.00,,,0.00,0,WeatherHawk,2013-01-29 22:03:00,
2013-01-29 17:08:00,33.8,27.4,30.19,NW,304,2.0,9.0,77,0.00,,,0.00,0,WeatherHawk,2013-01-29 22:08:00,
2013-01-29 17:13:00,33.8,27.4,30.18,NNW,327,3.0,7.0,77,0.00,,,0.00,0,WeatherHawk,2013-01-29 22:13:00,
2013-01-29 17:18:00,33.8,27.4,30.18,West,279,2.0,4.0,77,0.00,,,0.00,0,WeatherHawk,2013-01-29 22:18:00,
2013-01-29 17:23:00,34.0,27.5,30.18,WNW,282,2.0,5.0,77,0.00,,,0.00,0,WeatherHawk,2013-01-29 22:23:00,
2013-01-29 17:28:00,34.0,27.5,30.18,NW,306,2.0,5.0,77,0.00,,,0.00,0,WeatherHawk,2013-01-29 22:28:00,
2013-01-29 17:33:00,34.0,27.5,30.18,NNW,331,1.0,4.0,77,0.00,,,0.00,0,WeatherHawk,2013-01-29 22:33:00,
2013-01-29 17:38:00,34.0,27.5,30.18,NW,317,2.0,4.0,77,0.00,,,0.00,0,WeatherHawk,2013-01-29 22:38:00,
2013-01-29 17:43:00,34.0,27.5,30.18,NW,321,2.0,4.0,77,0.00,,,0.00,0,WeatherHawk,2013-01-29 22:43:00,
2013-01-29 17:48:00,34.0,27.2,30.18,NNW,336,4.0,4.0,76,0.00,,,0.00,0,WeatherHawk,2013-01-29 22:48:00,
2013-01-29 17:53:00,34.2,27.4,30.18,NNW,335,5.0,5.0,76,0.00,,,0.00,0,WeatherHawk,2013-01-29 22:53:00,
2013-01-29 17:58:00,34.2,27.7,30.19,WNW,300,3.0,6.0,77,0.00,,,0.00,0,WeatherHawk,2013-01-29 22:58:00,
2013-01-29 18:03:00,34.2,27.4,30.18,North,351,5.0,6.0,76,0.00,,,0.00,0,WeatherHawk,2013-01-29 23:03:00,
2013-01-29 18:08:00,34.2,27.7,30.18,NW,306,3.0,5.0,77,0.00,,,0.00,0,WeatherHawk,2013-01-29 23:08:00,
2013-01-29 18:13:00,34.2,27.7,30.18,NW,323,2.0,5.0,77,0.00,,,0.00,0,WeatherHawk,2013-01-29 23:13:00,
2013-01-29 18:18:00,34.2,27.7,30.19,NW,304,4.0,5.0,77,0.00,,,0.00,0,WeatherHawk,2013-01-29 23:18:00,
2013-01-29 18:23:00,34.2,27.7,30.19,NW,311,7.0,7.0,77,0.00,,,0.00,0,WeatherHawk,2013-01-29 23:23:00,
2013-01-29 18:28:00,34.2,27.7,30.20,NNW,336,6.0,7.0,77,0.00,,,0.00,0,WeatherHawk,2013-01-29 23:28:00,
2013-01-29 18:33:00,34.2,27.7,30.19,NNW,339,5.0,7.0,77,0.00,,,0.00,0,WeatherHawk,2013-01-29 23:33:00,
2013-01-29 18:38:00,34.2,28.0,30.19,WNW,293,6.0,7.0,78,0.00,,,0.00,0,WeatherHawk,2013-01-29 23:38:00,
2013-01-29 18:43:00,34.2,28.0,30.20,NNW,331,6.0,7.0,78,0.00,,,0.00,0,WeatherHawk,2013-01-29 23:43:00,
2013-01-29 18:48:00,34.2,28.0,30.19,West,278,3.0,7.0,78,0.00,,,0.00,0,WeatherHawk,2013-01-29 23:48:00,
2013-01-29 18:53:00,34.2,28.0,30.19,NNW,344,4.0,7.0,78,0.00,,,0.00,0,WeatherHawk,2013-01-29 23:53:00,
2013-01-29 18:59:00,34.2,28.0,30.19,North,3,4.0,5.0,78,0.00,,,0.00,0,WeatherHawk,2013-01-29 23:59:00,
2013-01-29 19:04:00,34.2,28.0,30.19,NNW,327,3.0,5.0,78,0.00,,,0.00,1,WeatherHawk,2013-01-30 00:04:00,
2013-01-29 19:10:00,34.2,28.0,30.19,NW,304,2.0,5.0,78,0.00,,,0.00,0,WeatherHawk,2013-01-30 00:10:00,
2013-01-29 19:15:00,34.2,28.0,30.20,WNW,292,2.0,6.0,78,0.00,,,0.00,0,WeatherHawk,2013-01-30 00:15:00,
2013-01-29 19:20:00,34.2,28.0,30.19,North,354,2.0,6.0,78,0.00,,,0.00,0,WeatherHawk,2013-01-30 00:20:00,
2013-01-29 19:25:00,34.2,28.3,30.19,ESE,112,2.0,3.0,79,0.00,,,0.00,0,WeatherHawk,2013-01-30 00:25:00,
2013-01-29 19:30:00,34.3,28.5,30.18,ESE,102,3.0,-999.0,79,0.00,,,0.00,2,WeatherHawk,2013-01-30 00:30:00,
2013-01-29 19:35:00,34.3,28.2,30.18,ENE,66,2.0,-999.0,78,0.00,,,0.00,0,WeatherHawk,2013-01-30 00:35:00,
2013-01-29 19:40:00,34.5,28.4,30.18,ESE,104,3.0,-999.0,78,0.00,,,0.00,0,WeatherHawk,2013-01-30 00:40:00,
2013-01-29 19:45:00,34.5,28.4,30.19,NE,55,2.0,4.0,78,0.00,,,0.00,0,WeatherHawk,2013-01-30 00:45:00,
2013-01-29 19:50:00,34.3,28.2,30.18,ENE,61,2.0,4.0,78,0.00,,,0.00,0,WeatherHawk,2013-01-30 00:50:00,
2013-01-29 19:55:00,34.5,28.7,30.19,ESE,117,2.0,5.0,79,0.00,,,0.00,0,WeatherHawk,2013-01-30 00:55:00,
2013-01-29 20:00:00,34.7,28.9,30.19,ESE,103,4.0,5.0,79,0.00,,,0.00,0,WeatherHawk,2013-01-30 01:00:00,
2013-01-29 20:05:00,34.7,28.9,30.18,East,93,5.0,5.0,79,0.00,,,0.00,0,WeatherHawk,2013-01-30 01:05:00,
2013-01-29 20:10:00,34.9,29.0,30.19,East,79,3.0,5.0,79,0.00,,,0.00,0,WeatherHawk,2013-01-30 01:10:00,
2013-01-29 20:15:00,35.1,29.5,30.18,SE,127,3.0,5.0,80,0.00,,,0.00,0,WeatherHawk,2013-01-30 01:15:00,
2013-01-29 20:20:00,35.1,29.8,30.18,ESE,114,4.0,5.0,81,0.00,,,0.00,0,WeatherHawk,2013-01-30 01:20:00,
2013-01-29 20:25:00,35.2,30.0,30.19,SSE,153,3.0,5.0,81,0.00,,,0.00,0,WeatherHawk,2013-01-30 01:25:00,
2013-01-29 20:30:00,35.4,30.2,30.19,SSW,206,4.0,5.0,81,0.00,,,0.00,0,WeatherHawk,2013-01-30 01:30:00,
2013-01-29 20:35:00,35.4,30.2,30.19,SW,222,4.0,5.0,81,0.00,,,0.00,0,WeatherHawk,2013-01-30 01:35:00,
2013-01-29 20:40:00,35.6,30.7,30.19,SSW,207,3.0,5.0,82,0.00,,,0.00,0,WeatherHawk,2013-01-30 01:40:00,
2013-01-29 20:45:00,35.8,30.8,30.18,SSE,152,5.0,5.0,82,0.00,,,0.00,0,WeatherHawk,2013-01-30 01:45:00,
2013-01-29 20:50:00,35.8,30.8,30.19,SSW,213,4.0,5.0,82,0.00,,,0.00,0,WeatherHawk,2013-01-30 01:50:00,
2013-01-29 20:55:00,36.1,31.2,30.20,West,274,2.0,5.0,82,0.00,,,0.00,0,WeatherHawk,2013-01-30 01:55:00,
2013-01-29 21:00:00,36.1,31.2,30.20,West,260,3.0,6.0,82,0.00,,,0.00,0,WeatherHawk,2013-01-30 02:00:00,
2013-01-29 21:05:00,35.6,30.4,30.19,West,280,3.0,7.0,81,0.00,,,0.00,0,WeatherHawk,2013-01-30 02:05:00,
2013-01-29 21:10:00,35.2,30.0,30.20,WNW,283,9.0,9.0,81,0.00,,,0.00,0,WeatherHawk,2013-01-30 02:10:00,
2013-01-29 21:15:00,35.1,30.1,30.20,WNW,298,5.0,9.0,82,0.00,,,0.00,0,WeatherHawk,2013-01-30 02:15:00,
2013-01-29 21:20:00,34.9,30.0,30.20,West,276,7.0,9.0,82,0.00,,,0.00,0,WeatherHawk,2013-01-30 02:20:00,
2013-01-29 21:25:00,34.7,29.8,30.20,WNW,285,8.0,9.0,82,0.00,,,0.00,0,WeatherHawk,2013-01-30 02:25:00,
2013-01-29 21:30:00,34.5,29.6,30.19,West,274,8.0,9.0,82,0.00,,,0.00,0,WeatherHawk,2013-01-30 02:30:00,
2013-01-29 21:35:00,34.3,29.4,30.19,West,267,7.0,10.0,82,0.00,,,0.00,0,WeatherHawk,2013-01-30 02:35:00,
2013-01-29 21:40:00,34.3,29.7,30.19,WNW,283,8.0,10.0,83,0.00,,,0.00,0,WeatherHawk,2013-01-30 02:40:00,
2013-01-29 21:45:00,34.3,30.0,30.18,West,279,2.0,-999.0,84,0.00,,,0.00,0,WeatherHawk,2013-01-30 02:45:00,
2013-01-29 21:50:00,34.5,30.2,30.18,NNW,331,3.0,9.0,84,0.00,,,0.00,0,WeatherHawk,2013-01-30 02:50:00,
2013-01-29 21:55:00,34.5,30.2,30.18,West,261,1.0,-999.0,84,0.00,,,0.00,0,WeatherHawk,2013-01-30 02:55:00,
2013-01-29 22:00:00,34.7,30.7,30.18,West,267,5.0,5.0,85,0.00,,,0.00,0,WeatherHawk,2013-01-30 03:00:00,
2013-01-29 22:05:00,34.5,30.5,30.18,WNW,289,4.0,6.0,85,0.00,,,0.00,0,WeatherHawk,2013-01-30 03:05:00,
2013-01-29 22:10:00,34.5,30.8,30.18,West,260,4.0,6.0,86,0.00,,,0.00,0,WeatherHawk,2013-01-30 03:10:00,
2013-01-29 22:15:00,34.5,30.8,30.18,NW,317,1.0,6.0,86,0.00,,,0.00,0,WeatherHawk,2013-01-30 03:15:00,
2013-01-29 22:20:00,34.5,30.8,30.18,WNW,283,1.0,4.0,86,0.00,,,0.00,0,WeatherHawk,2013-01-30 03:20:00,
2013-01-29 22:25:00,34.5,30.8,30.18,WSW,254,2.0,3.0,86,0.00,,,0.00,0,WeatherHawk,2013-01-30 03:25:00,
2013-01-29 22:30:00,34.5,31.1,30.17,SSW,202,3.0,3.0,87,0.00,,,0.00,0,WeatherHawk,2013-01-30 03:30:00,
2013-01-29 22:35:00,34.9,31.4,30.17,SSW,203,3.0,4.0,87,0.00,,,0.00,0,WeatherHawk,2013-01-30 03:35:00,
2013-01-29 22:40:00,35.1,31.6,30.16,SW,214,4.0,6.0,87,0.00,,,0.00,0,WeatherHawk,2013-01-30 03:40:00,
2013-01-29 22:45:00,35.4,31.9,30.16,SSW,197,5.0,6.0,87,0.00,,,0.00,0,WeatherHawk,2013-01-30 03:45:00,
2013-01-29 22:50:00,35.4,31.9,30.16,South,177,5.0,6.0,87,0.00,,,0.00,0,WeatherHawk,2013-01-30 03:50:00,
2013-01-29 22:55:00,35.6,32.1,30.16,SSW,203,4.0,7.0,87,0.00,,,0.00,0,WeatherHawk,2013-01-30 03:55:00,
2013-01-29 23:00:00,35.6,32.1,30.16,SSW,196,5.0,7.0,87,0.00,,,0.00,0,WeatherHawk,2013-01-30 04:00:00,
2013-01-29 23:05:00,35.8,32.6,30.16,SSW,202,6.0,7.0,88,0.00,,,0.00,0,WeatherHawk,2013-01-30 04:05:00,
2013-01-29 23:10:00,35.8,32.6,30.16,SSE,168,5.0,7.0,88,0.00,,,0.00,0,WeatherHawk,2013-01-30 04:10:00,
2013-01-29 23:15:00,36.0,32.8,30.17,SSW,196,6.0,6.0,88,0.00,,,0.00,0,WeatherHawk,2013-01-30 04:15:00,
2013-01-29 23:20:00,36.0,32.8,30.17,South,188,6.0,7.0,88,0.00,,,0.00,0,WeatherHawk,2013-01-30 04:20:00,
2013-01-29 23:25:00,36.1,32.9,30.17,SSW,194,5.0,7.0,88,0.00,,,0.00,0,WeatherHawk,2013-01-30 04:25:00,
2013-01-29 23:30:00,36.1,32.7,30.16,SSW,205,6.0,7.0,87,0.00,,,0.00,0,WeatherHawk,2013-01-30 04:30:00,
2013-01-29 23:35:00,36.1,32.7,30.16,SSW,199,6.0,7.0,87,0.00,,,0.00,0,WeatherHawk,2013-01-30 04:35:00,
2013-01-29 23:40:00,36.1,32.7,30.17,SSW,207,4.0,7.0,87,0.00,,,0.00,0,WeatherHawk,2013-01-30 04:40:00,
2013-01-29 23:45:00,36.3,32.8,30.16,South,191,6.0,7.0,87,0.00,,,0.00,0,WeatherHawk,2013-01-30 04:45:00,
2013-01-29 23:50:00,36.3,32.8,30.16,SSW,192,7.0,8.0,87,0.00,,,0.00,0,WeatherHawk,2013-01-30 04:50:00,
2013-01-29 23:55:00,36.5,33.3,30.16,SSW,194,6.0,8.0,88,0.00,,,0.00,0,WeatherHawk,2013-01-30 04:55:00,